[[[{"header":{"parameterUnit":"kt","parameterCategory":2,"dx":1,"dy":1,"la1":30.253999710083008,"la2":30.299108505249023,"lo1":-89.0895004272461,"lo2":-89.04439544677734,"nx":28,"ny":28,"refTime":"2022-10-01T21:00:00:Z","depth":0,"parameterNumber":1,"parameterNumberName":"U-component_of_WINDS"},"data":[-0.0665,-0.0754,-0.0753,-0.0855,-0.0871,-0.0941,-0.0967,-0.0999,-0.1025,-0.1109,-0.1157,-0.1167,-0.1194,-0.1253,-0.1306,-0.131,-0.1334,-0.1365,-0.1365,-0.1224,-0.1205,-0.1187,-0.1167,-0.1369,-0.1369,-0.1512,-0.1513,-0.1514,-0.0562,-0.0579,-0.0632,-0.0684,-0.073,-0.0699,-0.0738,-0.078,-0.0843,-0.0875,-0.0923,-0.0997,-0.1056,-0.1073,-0.1131,-0.1174,-0.1165,-0.119,-0.1189,-0.1195,-0.1043,-0.1022,-0.1196,-0.1196,-0.1196,-0.1196,-0.1196,-0.1196,-0.0374,-0.0427,-0.0458,-0.0516,-0.0541,-0.0576,-0.0627,-0.0637,-0.069,-0.0749,-0.0739,-0.0812,-0.0845,-0.0915,-0.0939,-0.0996,-0.0969,-0.0998,-0.1006,-0.1015,-0.1025,-0.0824,-0.1005,-0.1005,-0.1004,-0.1004,-0.1003,0,-0.0238,-0.0234,-0.0285,-0.0336,-0.0378,-0.0418,-0.0455,-0.0486,-0.048,-0.0524,-0.0588,-0.0625,-0.0699,-0.0761,-0.0815,-0.0834,-0.0812,-0.0808,-0.0829,-0.0838,-0.0838,-0.0843,-0.06,-0.0804,-0.0803,-0.0801,-0.08,-0.08,-0.0053,-0.0113,-0.0145,-0.0181,-0.0201,-0.0259,-0.0294,-0.0284,-0.0322,-0.0366,-0.0414,-0.0474,-0.0523,-0.0626,-0.0641,-0.0697,-0.0687,-0.0766,-0.0696,-0.07,-0.0694,-0.0692,-0.07,-0.0782,-0.0784,-0.0786,-0.0787,0,0.0051,0.0051,-0.0043,-0.0069,-0.0078,-0.0142,-0.0166,-0.0218,-0.0223,-0.0296,-0.0313,-0.0322,-0.0386,-0.0387,-0.046,-0.0459,-0.0569,-0.0556,-0.0558,-0.0557,-0.063,-0.0625,-0.0861,-0.0892,-0.0678,-0.068,-0.0682,0,0.0207,0.0127,0.0131,0.0077,-0.0012,0.0001,-0.0088,-0.0101,-0.0129,-0.0187,-0.0159,-0.0214,-0.0207,-0.0262,-0.0261,-0.035,-0.0363,-0.0369,-0.0369,-0.0375,-0.0375,-0.04,-0.0392,-0.0361,-0.036,-0.0358,-0.0358,0,0.0365,0.0275,0.0188,0.0167,0.0129,0.0087,0.0069,0.0038,0.0003,-0.0042,-0.0065,-0.0118,-0.0149,-0.0191,-0.019,-0.0143,-0.0297,-0.0233,-0.0305,-0.0305,-0.0343,-0.0342,-0.0545,-0.0356,-0.0356,-0.0355,-0.0355,0,0.0489,0.0445,0.0319,0.0288,0.0263,0.0206,0.0154,0.0105,0.0069,0.0066,0.003,0.0047,-0.0028,0.0035,-0.007,-0.0009,-0.0041,-0.0053,-0.0058,-0.007,-0.0,-0.012,-0.0309,-0.0332,-0.0074,-0.0072,-0.007,0,0.0669,0.0542,0.0551,0.043,0.0371,0.0405,0.0341,0.0309,0.03,0.0247,0.0238,0.0177,0.0225,0.0205,0.0154,0.0139,0.0061,0.0151,0.0069,0.0066,0.0073,-0.01,-0.013,-0.0266,-0.0039,-0.0043,-0.0045,0,0.0807,0.0764,0.0741,0.0717,0.0677,0.0627,0.0555,0.0498,0.0462,0.0423,0.036,0.0277,0.0308,0.0275,0.0283,0.0229,0.0115,0.0269,0.0268,0.0238,-0.0023,-0.0052,-0.0075,0.0131,0.0128,0.0125,-0.0021,0,0.0988,0.0925,0.0867,0.0813,0.0775,0.07,0.0699,0.0659,0.0671,0.0662,0.0571,0.0543,0.0483,0.0458,0.0468,0.0348,0.0366,0.04,0.0457,0.0346,0.0297,0.0278,0.053,0.0532,0.0533,0.0535,0,0,0.1157,0.1067,0.1078,0.1008,0.0976,0.1012,0.0931,0.0905,0.0848,0.0825,0.0859,0.0735,0.071,0.0598,0.0564,0.0541,0.0517,0.0556,0.04,0.0385,0.0371,0.032,0.03,0.0537,0.0538,0.0538,0.0539,0,0.1222,0.12,0.1122,0.1095,0.1055,0.1051,0.1032,0.0998,0.0988,0.09,0.0928,0.0873,0.0774,0.0743,0.0714,0.0571,0.0593,0.0554,0.0477,0.0415,0.0398,0.0383,0.0329,0.031,0.0542,0.0542,0.0542,0,0.1355,0.1332,0.1294,0.1225,0.1199,0.1137,0.1199,0.1132,0.1085,0.1124,0.1035,0.1019,0.0977,0.0873,0.0827,0.0855,0.0661,0.0723,0.0714,0.0707,0.0647,0.0627,0.0609,0.0845,0.0846,0.0847,0,0,0.1411,0.1353,0.1329,0.1239,0.1221,0.1213,0.118,0.1187,0.115,0.1135,0.1113,0.1076,0.1018,0.098,0.0925,0.0813,0.0802,0.076,0.0746,0.0734,0.0721,0.0658,0.0638,0.0851,0.0851,0.0851,0,0,0.1436,0.1406,0.1424,0.132,0.1285,0.1254,0.1198,0.1219,0.117,0.1178,0.1185,0.1175,0.1078,0.106,0.1115,0.0945,0.1003,0.099,0.0959,0.0941,0.0927,0.0932,0.1171,0,0,0,0,0,0.1501,0.141,0.1427,0.1409,0.1321,0.1245,0.1234,0.1238,0.128,0.1235,0.1221,0.1247,0.1091,0.1139,0.1121,0.1058,0.0903,0.0894,0.0885,0.0819,0.08,0.0785,0,0,0,0,0,0,0.1494,0.1472,0.1429,0.1395,0.1375,0.1248,0.1319,0.1317,0.1284,0.1291,0.1249,0.1246,0.1247,0.1149,0.1132,0.1073,0.1176,0.0899,0.0891,0.0884,0.0813,0.0797,0.0784,0,0,0,0,0,0.1489,0.1471,0.1329,0.1396,0.1379,0.1364,0.1322,0.1322,0.1296,0.1272,0.127,0.1302,0.1245,0.1231,0.1139,0.108,0.1188,0.1182,0.0894,0.0888,0.0883,0.0805,0,0,0,0,0,0,0.1484,0.1469,0.1326,0.132,0.143,0.1371,0.1362,0.1325,0.128,0.1276,0.1326,0.1332,0.1243,0.1233,0.1222,0.1083,0.1198,0.1191,0.1187,0.089,0.0885,0.088,0,0,0,0,0,0,0.1479,0.1465,0.1323,0.1366,0.1366,0.1377,0.1369,0.1291,0.1279,0.1336,0.134,0.1329,0.1259,0.1233,0.1225,0.1103,0.1205,0.1199,0.1195,0.1192,0.0886,0.0882,0,0,0,0,0,0,0.1473,0.1461,0.1368,0.1368,0.1368,0.1311,0.1308,0.1217,0.1318,0.1338,0.1327,0.1331,0.1258,0.125,0.1226,0.1108,0.1104,0.1205,0.1201,0.1198,0.1196,0,0,0,0,0,0,0,0.1468,0.1548,0.1356,0.1369,0.1369,0.1273,0.1272,0.127,0.1319,0.1322,0.1326,0.1329,0.124,0.1233,0.1227,0.1112,0,0,0.1205,0.1202,0,0,0,0,0,0,0,0,0.1553,0.1549,0.1356,0.1355,0.1354,0.1273,0.1272,0.1271,0.1319,0.1322,0.1325,0.1328,0.1238,0.1233,0.1227,0,0,0,0,0,0,0,0,0,0,0,0,0,0,0,0.1356,0.1355,0,0.1273,0.1272,0.1271,0.132,0.1322,0.1325,0.1327,0.1237,0.1232,0.1228,0,0,0,0,0,0,0,0,0,0,0,0,0,0,0,0,0,0,0,0,0,0,0,0,0,0,0,0,0,0,0,0,0,0,0,0,0,0,0,0,0,0,0,0,0,0,0,0,0,0,0,0,0,0,0,0,0,0,0,0,0,0,0,0,0,0,0,0,0]}],[{"header":{"parameterUnit":"kt","parameterCategory":2,"dx":1,"dy":1,"la1":30.253999710083008,"la2":30.299108505249023,"lo1":-89.0895004272461,"lo2":-89.04439544677734,"nx":28,"ny":28,"refTime":"2022-10-01T21:00:00:Z","depth":0,"parameterNumber":2,"parameterNumberName":"V-component_of_WINDS"},"data":[-8.6002,-8.6208,-8.6216,-8.6454,-8.6501,-8.6664,-8.6724,-8.6802,-8.6865,-8.7057,-8.7168,-8.7194,-8.7256,-8.7388,-8.7506,-8.7514,-8.7564,-8.7633,-8.763,-8.7319,-8.7276,-8.7235,-8.7188,-8.7644,-8.7644,-8.7952,-8.7955,-8.7957,-8.5775,-8.5824,-8.5952,-8.6081,-8.6191,-8.613,-8.6225,-8.632,-8.6466,-8.6545,-8.6654,-8.6823,-8.6955,-8.6994,-8.7122,-8.7215,-8.7192,-8.7249,-8.7242,-8.7253,-8.6921,-8.6871,-8.7266,-8.7266,-8.7266,-8.7266,-8.7266,-8.7266,-8.5364,-8.5487,-8.557,-8.5708,-8.5775,-8.586,-8.5978,-8.6007,-8.613,-8.6267,-8.6248,-8.6412,-8.6489,-8.6643,-8.6695,-8.6821,-8.6758,-8.6821,-8.6837,-8.6853,-8.6872,-8.6429,-8.6842,-8.6841,-8.684,-8.6839,-8.6838,0,-8.5065,-8.5063,-8.5186,-8.5312,-8.5413,-8.5509,-8.5598,-8.5671,-8.5664,-8.5765,-8.5912,-8.5997,-8.6163,-8.63,-8.6418,-8.6459,-8.6402,-8.6396,-8.644,-8.6453,-8.6449,-8.6454,-8.5913,-8.6384,-8.638,-8.6377,-8.6375,-8.6373,-8.4651,-8.4794,-8.4882,-8.4967,-8.5018,-8.5155,-8.5237,-8.522,-8.5308,-8.5413,-8.5521,-8.5657,-8.5766,-8.5997,-8.6024,-8.6147,-8.612,-8.63,-8.6138,-8.6145,-8.6124,-8.6117,-8.6131,-8.6332,-8.6337,-8.6341,-8.6345,0,-8.4418,-8.4428,-8.465,-8.4722,-8.4744,-8.4893,-8.4953,-8.5073,-8.5087,-8.5254,-8.5292,-8.5312,-8.5455,-8.5453,-8.5614,-8.5609,-8.5852,-8.5822,-8.5826,-8.582,-8.5981,-8.5966,-8.6503,-8.6573,-8.6099,-8.6104,-8.6107,0,-8.4069,-8.4256,-8.4259,-8.4387,-8.4594,-8.4572,-8.4776,-8.4808,-8.4874,-8.5005,-8.4941,-8.5065,-8.5043,-8.5167,-8.5159,-8.5357,-8.5386,-8.5394,-8.539,-8.5401,-8.54,-8.5445,-8.5423,-8.5373,-8.537,-8.5368,-8.5366,0,-8.3703,-8.3923,-8.4131,-8.4182,-8.4276,-8.4374,-8.4417,-8.449,-8.457,-8.4672,-8.4724,-8.4844,-8.491,-8.5003,-8.4992,-8.4883,-8.5233,-8.508,-8.5241,-8.5242,-8.5319,-8.5314,-8.579,-8.5362,-8.5362,-8.5361,-8.536,0,-8.3422,-8.353,-8.383,-8.3906,-8.3964,-8.4101,-8.4219,-8.4335,-8.4417,-8.4421,-8.4501,-8.4457,-8.463,-8.4478,-8.4715,-8.4575,-8.4644,-8.4666,-8.4677,-8.4693,-8.4523,-8.4793,-8.5246,-8.5293,-8.4707,-8.4702,-8.4697,0,-8.3001,-8.3306,-8.3289,-8.3574,-8.3715,-8.3634,-8.3784,-8.3858,-8.3877,-8.3997,-8.4015,-8.4151,-8.4038,-8.4079,-8.4197,-8.4221,-8.4402,-8.4196,-8.4366,-8.4373,-8.4349,-8.4766,-8.4834,-8.5147,-8.4627,-8.4634,-8.464,0,-8.2675,-8.2789,-8.2841,-8.2898,-8.2994,-8.311,-8.3283,-8.3413,-8.3494,-8.3583,-8.3727,-8.3916,-8.3839,-8.3909,-8.3885,-8.4007,-8.4278,-8.3906,-8.3908,-8.3974,-8.4591,-8.4656,-8.4708,-8.4235,-8.4243,-8.425,-8.4584,0,-8.225,-8.2403,-8.2544,-8.2671,-8.2761,-8.2938,-8.2939,-8.3032,-8.3001,-8.3016,-8.3226,-8.3284,-8.3414,-8.3472,-8.3442,-8.3722,-8.3675,-8.359,-8.3442,-8.3715,-8.3825,-8.387,-8.3278,-8.3274,-8.327,-8.3267,0,0,-8.1845,-8.2064,-8.2039,-8.2206,-8.2281,-8.2193,-8.2383,-8.2444,-8.257,-8.2622,-8.254,-8.2816,-8.2866,-8.312,-8.3205,-8.3257,-8.3307,-8.3211,-8.3585,-8.362,-8.3653,-8.3771,-8.3817,-8.326,-8.3259,-8.3258,-8.3257,0,-8.169,-8.1748,-8.1936,-8.1999,-8.2091,-8.2098,-8.2144,-8.2218,-8.2236,-8.2441,-8.2364,-8.2489,-8.271,-8.2774,-8.2835,-8.3181,-8.3115,-8.322,-8.3408,-8.3548,-8.3588,-8.3624,-8.3748,-8.3792,-8.3247,-8.3248,-8.3248,0,-8.137,-8.1426,-8.1517,-8.1682,-8.1741,-8.1886,-8.1732,-8.1892,-8.1999,-8.1891,-8.2096,-8.2127,-8.2212,-8.2452,-8.2559,-8.2486,-8.294,-8.2795,-8.2819,-8.283,-8.2965,-8.3013,-8.3057,-8.2487,-8.2485,-8.2482,0,0,-8.1235,-8.1377,-8.143,-8.1648,-8.1691,-8.1703,-8.178,-8.1757,-8.1836,-8.1868,-8.1907,-8.1985,-8.2113,-8.2197,-8.2317,-8.258,-8.2596,-8.2702,-8.2738,-8.2767,-8.2795,-8.2937,-8.2985,-8.2472,-8.2472,-8.2472,0,0,-8.117,-8.1242,-8.1197,-8.145,-8.153,-8.1595,-8.1727,-8.1673,-8.1781,-8.176,-8.1726,-8.1745,-8.1969,-8.2002,-8.187,-8.2264,-8.2117,-8.2149,-8.2234,-8.2279,-8.2314,-8.2302,-8.1718,0,0,0,0,0,-8.1011,-8.1233,-8.1192,-8.1234,-8.144,-8.1618,-8.1644,-8.1623,-8.152,-8.1626,-8.1649,-8.1573,-8.1924,-8.1806,-8.1847,-8.1995,-8.2344,-8.2367,-8.2389,-8.256,-8.2608,-8.2648,0,0,0,0,0,0,-8.1027,-8.108,-8.1185,-8.1261,-8.1307,-8.161,-8.1432,-8.1432,-8.1508,-8.1491,-8.1571,-8.1575,-8.1558,-8.1783,-8.1821,-8.1961,-8.1705,-8.2353,-8.2373,-8.239,-8.2577,-8.2615,-8.2648,0,0,0,0,0,-8.104,-8.1082,-8.1419,-8.1257,-8.1297,-8.1322,-8.1423,-8.1422,-8.148,-8.1517,-8.1519,-8.1457,-8.1563,-8.1593,-8.1805,-8.1945,-8.1679,-8.1693,-8.2366,-8.2381,-8.2395,-8.2596,0,0,0,0,0,0,-8.105,-8.1081,-8.1426,-8.1438,-8.1172,-8.1304,-8.1324,-8.1413,-8.1501,-8.1506,-8.14,-8.1386,-8.1569,-8.1591,-8.1615,-8.1941,-8.1657,-8.1672,-8.1681,-8.2377,-8.2389,-8.24,0,0,0,0,0,0,-8.1059,-8.1092,-8.1432,-8.1326,-8.1324,-8.1288,-8.1306,-8.1482,-8.1503,-8.1378,-8.1369,-8.1393,-8.1533,-8.1591,-8.1609,-8.1885,-8.1641,-8.1655,-8.1664,-8.167,-8.2387,-8.2396,0,0,0,0,0,0,-8.1072,-8.11,-8.1322,-8.1322,-8.132,-8.1445,-8.1443,-8.1654,-8.1415,-8.1376,-8.1392,-8.1382,-8.1535,-8.1552,-8.1606,-8.1875,-8.1882,-8.1641,-8.1651,-8.1657,-8.1662,0,0,0,0,0,0,0,-8.1083,-8.0899,-8.136,-8.1319,-8.1317,-8.1542,-8.1545,-8.1548,-8.1412,-8.1403,-8.1395,-8.1386,-8.1563,-8.1578,-8.1593,-8.1866,0,0,-8.164,-8.1647,0,0,0,0,0,0,0,0,-8.0887,-8.0896,-8.136,-8.1363,-8.1365,-8.1542,-8.1545,-8.1547,-8.1411,-8.1404,-8.1396,-8.139,-8.1567,-8.1579,-8.1591,0,0,0,0,0,0,0,0,0,0,0,0,0,0,0,-8.1361,-8.1363,0,-8.1543,-8.1545,-8.1547,-8.141,-8.1404,-8.1398,-8.1392,-8.157,-8.158,-8.159,0,0,0,0,0,0,0,0,0,0,0,0,0,0,0,0,0,0,0,0,0,0,0,0,0,0,0,0,0,0,0,0,0,0,0,0,0,0,0,0,0,0,0,0,0,0,0,0,0,0,0,0,0,0,0,0,0,0,0,0,0,0,0,0,0,0,0,0,0]}]]]